Location: Ash Swamp
(41.5170°N, 74.6157°W)
Time: 17:21:00
(UTC+00:00)

Cosmos 1606 - Pass Details

Date: 14 July 2020
Orbit: 505 x 527 km, 82.5° (Epoch: 04 August)

Event Time Altitude Azimuth Distance (km) Brightness Sun altitude
Rises 03:07:22 0° 356° (N) 2,671 7.4 -21.3°
Reaches altitude 10° 03:09:33 10° 1° (N) 1,778 6.3 -21.5°
Enters shadow 03:13:17 55° 72° (ENE) 638 3.0 -21.8°
